Regional Weather Roundup
Issued by NWS

Home | Current Version | Previous Version | Text Only | Print | Product List | Glossary Off
Versions: 1 2 3 4 5 6 7 8 9 10 11 12 13 14 15 16 17 18 19 20 21 22 23 24 25 26 27 28 29 30 31 32 33 34 35 36 37 38 39 40 41 42 43 44 45 46 47 48 49 50

000
ASUS43 KLMK 010402
RWRKY
KENTUCKY REGIONAL WEATHER ROUNDUP
NATIONAL WEATHER SERVICE LOUISVILLE KY
1200 AM EDT MON SEP 01 2014

NOTE "FAIR" INDICATES FEW OR NO CLOUDS BELOW 12,000 FEET
WITH NO SIGNIFICANT WEATHER AND/OR OBSTRUCTIONS TO VISIBILITY.

KYZ001>023-026-027-061>063-070>075-010500-
WESTERN AND SOUTH CENTRAL KENTUCKY

CITY           SKY/WX    TMP DP  RH WIND       PRES   REMARKS
PADUCAH        CLEAR     78  73  84 S5        29.95F
HENDERSON      CLEAR     75  70  83 S6        29.96S
OWENSBORO      NOT AVBL
HOPKINSVILLE   CLEAR     75  75 100 S8        30.01S
BOWLING GREEN  CLEAR     74  71  91 S6        30.02F
GLASGOW        MOCLDY    73  73 100 S5        30.03S
$$

KYZ024-025-028>034-038-045-046-053-010500-
NORTH CENTRAL KENTUCKY

CITY           SKY/WX    TMP DP  RH WIND       PRES   REMARKS
LOUISVILLE/SDF PTCLDY    75  72  90 S5        29.99S
LOUISVILLE/LOU CLOUDY    75  73  93 S3        30.00R
FORT KNOX      PTCLDY    72  72 100 S5        29.99S
$$

KYZ035>037-039>044-047>052-055>060-089>105-010500-
NORTHEAST KENTUCKY

CITY           SKY/WX    TMP DP  RH WIND       PRES   REMARKS
LEXINGTON      CLOUDY    75  71  87 S9        30.03S
COVINGTON      CLEAR     70  68  93 S3        30.00F
FRANKFORT      CLOUDY    73  71  93 S6        30.01S
$$

KYZ054-064>069-076>088-106>120-010500-
SOUTHEAST KENTUCKY

CITY           SKY/WX    TMP DP  RH WIND       PRES   REMARKS
JACKSON        RAIN      71  69  93 CALM      30.08S FOG
LONDON         CLOUDY    74  69  85 SW5       30.09S
SOMERSET       CLOUDY    72  72 100 CALM      30.08S
MIDDLESBORO    MOCLDY    70  69  96 CALM      30.11S
MONTICELLO     PTCLDY    73  72  97 CALM      30.08F
$$



USA.gov is the U.S. government's official web portal to all federal, state and local government web resources and services.